Back to catalog

STARLINK-4196

AliveCommunicationsVLEO
NORAD 52859·PAYLOAD·🇺🇸 United States

Launched Jun 17, 2022 from Cape Canaveral Space Force Station

Loading…

Next Passes (next 24 hours)

TLE

FreshSource: CelesTrak SupGP

Epoch: Sep 14, 2026, 13:18 UTC

1 52859C 22062AF  26257.55465278 -.00021699  00000+0 -65842-3 0  2578
2 52859  53.1579 245.4951 0001236  75.6917 242.7422 15.33560855    13

Track STARLINK-4196 in real time with AllMySat

Download on the App Store